Starlink 34284

operational
NORAD ID: 64212 Int'l Des: 2025-117 Owner: SPXS Country: US Constellation: starlink
LEOCIRCULAR

Starlink 34284について

説明を読み込み中...

リアルタイム位置

3D地球を読み込み中...

次回通過

高度履歴

Altitude vs Time

uPlot chart will show altitude changes over time

軌道要素

1 64212U 25117K 26062.18232126 .00041297 00000-0 13977-2 0 9994
2 64212 53.1575 69.5308 0001643 126.6966 233.4185 15.30224002 43534
Epoch: Mar 3, 2026 • Age: 16 hours

現在のステータス

高度 476.5 km
速度 7.63 km/s
衛星直下点 34.95°N, 175.48°E
打ち上げ日 May 31, 2025
運用期間 0.7 years
タイプ internet

技術仕様

分類 Payload
質量 575.00 kg
乾燥質量 530.00 kg
総質量 575.00 kg
長さ 0.30 m
直径 4.10 m
スパン 29.00 m
形状 Box + pan
製造者 SPXS
バスタイプ Starlink V2MO
フェーズステータス In Orbit
所有者/国 SPXS/US

大規模コンステレーション

Loading constellations...